"Pseudo-MPEC" for ZTF09o5

Created 2020 Jan 21 6:07:38 UT using Find_Orb

Click here for an explanation of pseudo-MPECs

 
 Astrometry: 
     ZTF09o5  C2020 01 06.08244022 18 32.31 -12 58 44.0    ~185M 18.65rUNEOCPI41
     ZTF09o5  C2020 01 06.08730022 18 32.18 -12 58 47.7    ~185M 18.88rUNEOCPI41
     ZTF09o5  C2020 01 06.09216022 18 31.98 -12 58 50.2    ~185M 18.98rUNEOCPI41
     ZTF09o5  C2020 01 06.09703022 18 31.80 -12 58 52.9    ~185M 18.88rUNEOCPI41

Station data:
(I41) Palomar Mountain--ZTF  (N33.357340 W116.859780)  US/California. 1.2-m
   f/2.44 Oschin Schmidt + CCD.

Orbital elements:  ZTF09o5
   Perihelion 2020 Feb 13.002847 +/- 18.7 TT =  0:04:06 (JD 2458892.502847)
Epoch 2020 Jan  6.0 TT = JDT 2458854.5   Earth MOID: 0.0095   AutoNEOCP
M 321.04092582 +/- 34               (J2000 ecliptic)
n   1.02516199 +/- 0.939            Peri.  234.73005 +/- 45
a   0.97410936 +/- 0.595            Node   269.30814 +/- 29
e   0.0335236 +/- 0.217             Incl.    0.53930 +/- 70
P   0.96/351.16d           H 19.9   G  0.15   U 12.7  SR
q 0.94145363 +/- 0.381    Q 1.00676509 +/- 21.3
From 4 observations 2020 Jan. 6 (21.0 min); mean residual 0".28
Residuals in arcseconds: 
200106 I41  .30-  .30+    200106 I41  .03+  .04-    
200106 I41  .42+  .46-    200106 I41  .17-  .17+    

Ephemerides (geocentric):
Date (UTC) HH   RA              Dec         delta   r     elong  mag " sig PA
---- -- -- --  -------------   -----------  ------ ------ -----  --- ---- ---
2020 01 21 06  22 06 36.932   -17 35 26.14  .04503 .94434  27.6 21?? 393' 144
2020 01 21 07  22 06 32.625   -17 36 24.35  .04502 .94433  27.5 21?? 405' 145
2020 01 21 08  22 06 28.305   -17 37 22.59  .04501 .94432  27.5 21?? 417' 145
2020 01 21 09  22 06 23.973   -17 38 20.88  .04500 .94431  27.4 21?? 430' 146
2020 01 21 10  22 06 19.629   -17 39 19.21  .04499 .94430  27.4 21?? 443' 147
2020 01 21 11  22 06 15.273   -17 40 17.59  .04498 .94429  27.3 21?? 457' 148
2020 01 21 12  22 06 10.905   -17 41 16.01  .04497 .94428  27.2 21?? 471' 148
2020 01 21 13  22 06 06.525   -17 42 14.46  .04496 .94427  27.2 21?? 485' 149
2020 01 21 14  22 06 02.132   -17 43 12.97  .04495 .94426  27.1 21?? 500' 150
2020 01 21 15  22 05 57.727   -17 44 11.51  .04494 .94425  27.1 21?? 515' 151
2020 01 21 16  22 05 53.311   -17 45 10.09  .04493 .94424  27.0 21?? 530' 152
2020 01 21 17  22 05 48.882   -17 46 08.71  .04492 .94423  26.9 21?? 545' 153
2020 01 21 18  22 05 44.441   -17 47 07.38  .04491 .94422  26.9 21?? 560' 154
2020 01 21 19  22 05 39.988   -17 48 06.08  .04490 .94421  26.8 21?? 575' 154
2020 01 21 20  22 05 35.522   -17 49 04.83  .04489 .94420  26.8 21?? 590' 155
2020 01 21 21  22 05 31.045   -17 50 03.61  .04488 .94419  26.7 21?? 605' 156
2020 01 21 22  22 05 26.556   -17 51 02.44  .04487 .94418  26.6 21?? 619' 157
2020 01 21 23  22 05 22.055   -17 52 01.30  .04486 .94417  26.6 21?? 633' 158
2020 01 22 00  22 05 17.541   -17 53 00.20  .04485 .94416  26.5 21?? 647' 159
2020 01 22 01  22 05 13.016   -17 53 59.15  .04484 .94415  26.4 21?? 660' 160
2020 01 22 02  22 05 08.478   -17 54 58.13  .04483 .94414  26.4 22?? 672' 160
2020 01 22 03  22 05 03.929   -17 55 57.15  .04482 .94413  26.3 22?? 685' 161
2020 01 22 04  22 04 59.367   -17 56 56.20  .04481 .94412  26.3 22?? 696' 162
2020 01 22 05  22 04 54.794   -17 57 55.30  .04480 .94411  26.2 22?? 707' 163
2020 01 22 06  22 04 50.208   -17 58 54.43  .04479 .94410  26.1 22?? 718' 163
2020 01 22 07  22 04 45.611   -17 59 53.60  .04478 .94410  26.1 22?? 727' 164
2020 01 22 08  22 04 41.001   -18 00 52.80  .04477 .94409  26.0 22?? 737' 165
2020 01 22 09  22 04 36.380   -18 01 52.04  .04476 .94408  25.9 22?? 746' 165
2020 01 22 10  22 04 31.746   -18 02 51.32  .04475 .94407  25.9 22?? 754' 166
2020 01 22 11  22 04 27.101   -18 03 50.64  .04474 .94406  25.8 22?? 762' 166
2020 01 22 12  22 04 22.443   -18 04 49.99  .04473 .94405  25.8 22?? 770' 167
2020 01 22 13  22 04 17.774   -18 05 49.37  .04472 .94404  25.7 22?? 777' 168
2020 01 22 14  22 04 13.093   -18 06 48.80  .04471 .94403  25.6 22?? 784' 168
2020 01 22 15  22 04 08.399   -18 07 48.25  .04470 .94402  25.6 22?? 791' 169
2020 01 22 16  22 04 03.694   -18 08 47.74  .04469 .94401  25.5 22?? 797' 169
2020 01 22 17  22 03 58.977   -18 09 47.27  .04468 .94400  25.5 22?? 803' 170
2020 01 22 18  22 03 54.248   -18 10 46.83  .04467 .94399  25.4 22?? 809' 170
2020 01 22 19  22 03 49.508   -18 11 46.42  .04466 .94398  25.3 22?? 814' 170
2020 01 22 20  22 03 44.755   -18 12 46.05  .04466 .94397  25.3 22?? 819' 171
2020 01 22 21  22 03 39.990   -18 13 45.71  .04465 .94396  25.2 22?? 824' 171
2020 01 22 22  22 03 35.214   -18 14 45.40  .04464 .94395  25.1 22?? 829' 172
2020 01 22 23  22 03 30.425   -18 15 45.13  .04463 .94394  25.1 22?? 833' 172
2020 01 23 00  22 03 25.625   -18 16 44.89  .04462 .94394  25.0 22?? 838' 172
2020 01 23 01  22 03 20.813   -18 17 44.68  .04461 .94393  25.0 22?? 842' 173
2020 01 23 02  22 03 15.989   -18 18 44.50  .04460 .94392  24.9 22?? 846' 173
2020 01 23 03  22 03 11.154   -18 19 44.35  .04459 .94391  24.8 22?? 850' 173
2020 01 23 04  22 03 06.306   -18 20 44.24  .04458 .94390  24.8 22?? 853' 174
2020 01 23 05  22 03 01.447   -18 21 44.15  .04458 .94389  24.7 22?? 857' 174